XE2WR-3 Weather Reports


time (UTC)temp
C
wind
direction
speed
KPH
gust
KPH
rain 1hr
cm
rain 24hr
cm
rain mn
cm
humidity
%
barometer
mb
20260906191527 28 44 1.6 11.3 0.00 1.37 0.00 67 1012.6
20260906190027 27 25 4.8 11.3 0.00 1.37 0.00 68 1012.9
20260906184532 27 61 4.8 11.3 0.00 1.37 0.00 69 1013.2
20260906183031 27 60 4.8 12.9 0.00 1.37 0.00 69 1013.4
20260906181521 26 62 4.8 12.9 0.00 1.37 0.00 69 1013.6
20260906180015 26 92 3.2 8.0 0.00 1.37 0.00 68 1013.7
20260906174513 26 105 3.2 9.7 0.00 1.37 0.00 68 1013.9
20260906173012 26 69 4.8 8.0 0.00 1.37 0.00 69 1014.1
20260906171512 26 59 3.2 9.7 0.00 1.37 0.00 69 1014.2
20260906170011 26 76 3.2 8.0 0.00 1.37 0.00 69 1014.3
20260906164509 26 86 0.0 6.4 0.00 1.37 0.00 68 1014.3
20260906163007 25 89 1.6 6.4 0.00 1.37 0.00 68 1014.2
20260906161507 25 101 4.8 6.4 0.00 1.37 0.00 66 1014.3
20260906160005 25 62 1.6 4.8 0.00 1.37 0.00 65 1014.3
20260906154502 25 63 0.0 4.8 0.00 1.37 0.00 62 1014.2
20260906153101 25 87 0.0 1.6 0.00 1.37 0.00 53 1014.1
20260906151602 25 101 0.0 1.6 0.00 1.37 0.00 56 1014.0
20260906150057 24 101 0.0 1.6 0.00 1.37 0.00 54 1014.0
20260906144554 24 101 0.0 1.6 0.00 1.37 0.00 49 1013.8
20260906143055 24 103 0.0 0.0 0.00 1.37 0.00 50 1013.6
20260906141548 23 103 0.0 0.0 0.00 1.37 0.00 37 1013.6
20260906140049 23 103 0.0 0.0 0.00 1.37 0.00 28 1013.6
20260906134545 22 103 0.0 0.0 0.00 1.37 0.00 23 1013.4
20260906133059 22 103 0.0 0.0 0.00 1.37 0.00 21 1013.2
20260906131546 22 103 0.0 1.6 0.00 1.37 0.00 20 1013.1
20260906130043 -17 0.0 0.0 0.00 1.37 0.00 1012.9
20260906124533 -17 0.0 0.0 0.00 1.37 0.00 1012.7
20260906123034 -17 0.0 0.0 0.00 1.37 0.00 1012.6
20260906121525 -17 0.0 0.0 0.00 1.37 0.00 1012.4
20260906120024 -17 0.0 0.0 0.00 1.37 0.00 1012.3
20260906114523 -17 0.0 0.0 0.00 1.37 0.00 1012.0
20260906113011 -17 0.0 0.0 0.00 1.37 0.00 1011.9
20260906111507 -17 0.0 0.0 0.00 1.37 0.00 1011.9
20260906110002 -17 0.0 0.0 0.00 1.37 0.00 1011.6
20260906104559 -17 0.0 0.0 0.00 1.37 0.00 1011.8
20260906103055 -17 0.0 0.0 0.00 1.37 0.00 1011.4
20260906101550 -17 0.0 0.0 0.00 1.37 0.00 1011.2
20260906100049 -17 0.0 0.0 0.00 1.37 0.00 1011.2
20260906094549 -17 0.0 0.0 0.00 1.37 0.00 1011.0
20260906093047 -17 0.0 0.0 0.00 1.37 0.00 1011.2
20260906091532 -17 0.0 0.0 0.00 1.37 0.00 1011.4
20260906090038 -17 0.0 0.0 0.00 1.37 0.00 1011.7
20260906084526 -17 0.0 0.0 0.00 1.37 0.00 1011.4
20260906083031 -17 0.0 0.0 0.00 1.37 0.00 1011.8
20260906081516 -17 0.0 0.0 0.00 1.37 0.00 1011.8
20260906080009 -17 0.0 0.0 0.00 1.37 0.00 1011.9
20260906074519 -17 0.0 0.0 0.00 1.37 0.00 1011.9
20260906073002 -17 0.0 0.0 0.00 1.37 0.00 1012.2
20260906071557 -17 0.0 0.0 0.00 1.37 0.00 1012.2
20260906070053 -17 0.0 0.0 0.00 1.37 0.00 1012.5
20260906064549 -17 0.0 0.0 0.00 1.37 0.00 1013.0
20260906063046 22 105 0.0 3.2 0.00 1.37 0.00 56 1013.5
20260906061548 22 106 0.0 3.2 0.00 1.37 0.00 57 1013.4
20260906060041 22 137 3.2 12.9 0.00 1.37 0.00 52 1013.9
20260906054539 22 98 11.3 17.7 0.00 1.37 1.37 34 1014.0
20260906053028 22 89 9.7 17.7 0.00 1.37 1.37 26 1014.0
20260906051526 22 110 11.3 14.5 0.00 1.37 1.37 32 1014.2
20260906050020 23 90 8.0 14.5 0.00 1.37 1.37 22 1014.3
20260906044515 22 112 1.6 8.0 0.00 1.37 1.37 43 1014.3
20260906043015 22 150 0.0 3.2 0.00 1.37 1.37 8 1014.6
20260906041506 22 235 0.0 0.0 0.03 1.37 1.37 29 1014.4
20260906040002 22 253 0.0 0.0 0.03 1.37 1.37 35 1014.4
20260906034557 22 226 0.0 4.8 0.03 1.37 1.37 36 1014.2
20260906033052 22 211 3.2 4.8 0.03 1.37 1.37 11 1014.0
20260906031548 22 248 1.6 3.2 0.00 1.37 1.37 18 1013.7
20260906030049 22 146 0.0 1.6 0.03 1.37 1.37 32 1013.5
20260906024542 22 148 0.0 4.8 0.05 1.37 1.37 31 1013.0
20260906023034 22 214 0.0 3.2 0.05 1.37 1.37 31 1012.7
20260906021529 22 231 0.0 0.0 0.05 1.37 1.37 26 1012.3
20260906020024 22 231 0.0 3.2 0.05 1.35 1.35 12 1012.3
20260906014537 22 224 0.0 0.0 0.03 1.32 1.32 10 1012.5
20260906013022 22 208 0.0 1.6 0.00 1.30 1.30 24 1012.0
20260906011510 22 250 1.6 11.3 0.00 1.30 1.30 27 1011.7
20260906010020 22 269 1.6 4.8 0.03 1.30 1.30 5 1011.5
20260906004502 22 32 0.0 4.8 0.03 1.30 1.30 12 1011.1
20260906003057 22 198 3.2 12.9 0.03 1.30 1.30 18 1010.8
20260906001603 22 274 1.6 8.0 0.05 1.30 1.30 8 1011.2
20260906000048 22 269 0.0 3.2 0.03 1.27 1.27 5 1011.3
20260905234544 22 236 0.0 1.6 0.05 1.27 1.27 2 1012.0
20260905233042 22 245 4.8 9.7 0.18 1.27 1.27 10 1012.2
20260905231544 21 224 0.0 4.8 0.18 1.27 1.27 22 1013.1
20260905230042 21 218 0.0 6.4 0.43 1.27 1.27 12 1013.4
20260905224544 22 30 1.6 8.0 1.14 1.24 1.24 24 1013.1
20260905223039 22 272 0.0 11.3 1.09 1.09 1.09 29 1011.9
20260905221529 24 188 0.0 11.3 1.07 1.07 1.07 59 1011.1
20260905220028 25 224 4.8 11.3 0.81 0.81 0.81 69 1010.7
20260905214526 27 141 19.3 46.7 0.10 0.10 0.10 62 1010.5
20260905213023 31 63 19.3 37.0 0.00 0.00 0.00 55 1010.3
20260905211536 32 16 1.6 8.0 0.00 0.00 0.00 58 1009.5
20260905210020 31 52 3.2 11.3 0.00 0.00 0.00 63 1009.9
20260905204524 31 14 1.6 12.9 0.00 0.00 0.00 62 1010.2
20260905203020 31 34 4.8 14.5 0.00 0.00 0.00 60 1010.7
20260905201518 31 47 8.0 17.7 0.00 0.00 0.00 60 1010.7
20260905200015 31 27 6.4 16.1 0.00 0.00 0.00 60 1010.6
20260905194509 31 47 4.8 16.1 0.00 0.00 0.00 61 1010.8
20260905193010 31 60 9.7 14.5 0.00 0.00 0.00 61 1011.0